Tracking 31023 objects as of 20-Jul-2025
HD Live streaming from Space Station
objects crossing your sky now

SL-19 DEB

Track SL-19 DEB now!
10-day predictions


NORAD ID: 23479
Int'l Code: 1994-085C
Perigee: 1,868.9 km
Apogee: 2,015.5 km
Inclination: 65.0 °
Period: 125.7 minutes
Semi major axis: 8313 km
RCS: 0.2064 m2 (medium)
Launch date: December 26, 1994
Source: Commonwealth of Independent States (former USSR) (CIS)
Launch site: TYURATAM MISSILE AND SPACE COMPLEX (TTMTR)

Note: This is SATELLITE DEBRIS
Your satellite tracking list
Your tracking list is empty




NASA's NSSDC Master Catalog

Two Line Element Set (TLE):
1 23479U 94085C   25200.88458110  .00001105  00000-0  27064-1 0  9992
2 23479  65.0470  58.2195 0088146  67.3685 305.4830 11.45378022275168
Source of the keplerian elements: AFSPC